Content
SEND FEEDBACK

Daily
Averages
Monthly
Summary
United States of America

NEW YORK - CENTRAL PARK, NEW YORK


Home > North America > United States > New York
Elevation: 14 feet     Latitude: 40 47N     Longitude: 073 58W

WEATHER
 
SELECT A DAY
Number of Records: 152,211;   Date Range: 11/1/95 - 11/24/14
 
SHARE

PRINT THIS DATA

[ ← Previous Day ]
WEATHER ALMANAC - AUGUST 8, 2014
[ Next Day → ]
[ °C ]   °F
Weather ElementAverageHighLow
Temperature73.6 °F82 °F (5:51 pm)64.9 °F (6:51 am)
Dewpoint52.1 °F55 °F (6:51 pm)48.9 °F (3:51 pm)
Humidity48.2 %65 % (6:51 am)33 % (3:51 pm)
Barometer30.06 in30.11 in (10:51 am)30.02 in (11:51 pm)
Wind Speed2.9 mph5.8 mph (12:51 am)
Weather ElementAverage
Visibility10 mi
Wind DirectionE (88.3 °)

Weather ElementTotal
Precipitation---
Cooling Degree Days8.5 (Base 65)
Growing Degree Days23.5 (Base 50)
Averaged from 24 records on August 8, 2014
WEATHER CONDITIONS BREAKOUT
WIND DIRECTION BREAKOUT
WEATHER BY HOUR - AUGUST 8, 2014
[ °C ]   °F
Local TimeTemperatureDewpointHumidityBarometerVisibilityWind DirectionWind SpeedGust SpeedPrecipitationEventsConditions
12:51 AM68.0 °F50.0 °F52 %30.02 in10.0 miCalmClear
1:51 AM66.9 °F51.1 °F57 %30.03 in10.0 miCalmClear
2:51 AM66.9 °F51.1 °F57 %30.03 in10.0 miVariable3.5 mphClear
3:51 AM66.0 °F52.0 °F60 %30.03 in10.0 miWNW (300°)4.6 mphClear
4:51 AM66.0 °F52.0 °F60 %30.04 in10.0 miNW (310°)3.5 mphClear
5:51 AM66.0 °F52.0 °F60 %30.06 in10.0 miVariable4.6 mphClear
6:51 AM64.9 °F53.1 °F65 %30.07 in10.0 miWNW (290°)5.8 mphClear
7:51 AM66.0 °F54.0 °F65 %30.09 in10.0 miVariable3.5 mphClear
8:51 AM68.0 °F54.0 °F61 %30.10 in10.0 miWNW (290°)5.8 mphClear
9:51 AM71.1 °F54.0 °F55 %30.10 in10.0 miWNW (290°)3.5 mphClear
10:51 AM75.2 °F51.8 °F44 %30.11 in10.0 miVariable5.8 mphClear
11:51 AM79.0 °F51.1 °F38 %30.08 in10.0 miVariable4.6 mphClear
12:51 PM80.1 °F48.9 °F34 %30.06 in10.0 miVariable4.6 mphClear
1:51 PM82.0 °F51.1 °F34 %30.05 in10.0 miVariable4.6 mphClear
2:51 PM81.0 °F48.9 °F33 %30.05 in10.0 miCalmPartly Cloudy
3:51 PM81.0 °F51.1 °F35 %30.03 in10.0 miVariable4.6 mphClear
4:51 PM80.1 °F54.0 °F40 %30.04 in10.0 miCalmScattered Clouds
5:51 PM79.0 °F55.0 °F44 %30.04 in10.0 miCalmPartly Cloudy
6:51 PM79.0 °F51.1 °F38 %30.04 in10.0 miNNW (340°)3.5 mphClear
7:51 PM78.1 °F52.0 °F40 %30.05 in10.0 miCalmPartly Cloudy
8:51 PM78.1 °F52.0 °F40 %30.06 in10.0 miCalmMostly Cloudy
9:51 PM75.9 °F53.1 °F45 %30.06 in10.0 miWNW (300°)4.6 mphClear
10:51 PM75.0 °F54.0 °F48 %30.07 in10.0 miVariable3.5 mphClear
11:51 PM73.0 °F54.0 °F51 %30.07 in10.0 miCalmClear
Hourly data recorded from KNYC, located miles away from New York - Central Park, New York







STORIES FROM OUR PARTNERS